SCP
0 0 0 0 0 0 0 0 0 0 0 0 0 0 0 0 0 0 0 0 0 0 0 0 0 0 0 0 0 0 0 0 0 0 0 0 0 0 0 0 0 0 0 0
0 0 0 0 0 0 0 0 0 0 0 0 0 0 0 0 0 0 0 0 0 0 0 0 0 0 0 0 0 0 0 0 0 0 0 0 0 0 0 0 0 0 0 0
0 0 0 0 0 0 0 0 0 0 0 0 0 0 0 0 0 0 0 0 0 0 0 0 0 0 0 0 0 0 0 0 0 0 0 0 0 0 0 0 0 0 0 0
0 0 0 0 0 0 0 0 0 0 0 0 0 0 0 0 0 0 0 0 0 0 0 0 0 0 0 0 0 0 0 0 0 0 0 0 0 0 0 0 0 0 0 0
0 0 0 0 0 0 0 0 0 0 0 0 0 0 0 0 0 0 0 0 0 0 0 0 0 0 0 0 0 0 0 0 0 0 0 0 0 0 0 0 0 0 0 0
0 0 0 0 0 0 0 0 0 0 0 0 0 0 0 0 0 0 0 0 0 0 0 0 0 0 0 0 0 0 0 0 0 0 0 0 0 0 0 0 0 0 0 0
0 0 0 0 0 0 0 0 0 0 0 0 0 0 0 0 0 0 0 0 0 0 0 0 0 0 0 0 0 0 0 0 0 0 0 0 0 0 0 0 0 0 0 0
0 0 0 0 0 0 0 0 0 0 0 0 0 0 0 0 0 0 0 0 0 0 0 0 0 0 0 0 0 0 0 0 0 0 0 0 0 0 0 0 0 0 0 0
0 0 0 0 0 0 0 0 0 0 0 0 0 0 0 0 0 0 0 0 0 0 0 0 0 0 0 0 0 0 0 0 0 0 0 0 0 0 0 0 0 0 0 0
0 0 0 0 0 0 0 0 0 0 0 0 0 0 0 0 0 0 0 0 0 0 0 0 0 0 0 0 0 0 0 0 0 0 0 0 0 0 0 0 0 0 0 0
0 0 0 0 0 0 0 0 0 0 0 0 0 0 0 0 0 0 0 0 0 0 0 0 0 0 0 0 0 0 0 0 0 0 0 0 0 0 0 0 0 0 0 0
0 0 0 0 0 0 0 0 0 0 0 0 0 0 0 0 0 0 0 0 0 0 0 0 0 0 0 0 0 0 0 0 0 0 0 0 0 0 0 0 0 0 0 0
0 0 0 0 0 0 0 0 0 0 0 0 0 0 0 0 0 0 0 0 0 0 0 0 0 0 0 0 0 0 0 0 0 0 0 0 0 0 0 0 0 0 0 0
0 0 0 0 0 0 0 0 0 0 0 0 0 0 0 0 0 0 0 0 0 0 0 0 0 0 0 0 0 0 0 0 0 0 0 0 0 0 0 0 0 0 0 0
0 0 0 0 0 0 0 0 0 0 0 0 0 0 0 0 0 0 0 0 0 0 0 0 0 0 0 0 0 0 0 0 0 0 0 0 0 0 0 0 0 0 0 0
0 0 0 0 0 0 0 0 0 0 0 0 0 0 0 0 0 0 0 0 0 0 0 0 0 0 0 0 0 0 0 0 0 0 0 0 0 0 0 0 0 0 0 0
0 0 0 0 0 0 0 0 0 0 0 0 0 0 0 0 0 0 0 0 0 0 0 0 0 0 0 0 0 0 0 0 0 0 0 0 0 0 0 0 0 0 0 0
0 0 0 0 0 0 0 0 0 0 0 0 0 0 0 0 0 0 0 0 0 0 0 0 0 0 0 0 0 0 0 0 0 0 0 0 0 0 0 0 0 0 0 0
0 0 0 0 0 0 0 0 0 0 0 0 0 0 0 0 0 0 0 0 0 0 0 0 0 0 0 0 0 0 0 0 0 0 0 0 0 0 0 0 0 0 0 0
0 0 0 0 0 0 0 0 0 0 0 0 0 0 0 0 0 0 0 0 0 0 0 0 0 0 0 0 0 0 0 0 0 0 0 0 0 0 0 0 0 0 0 0
0 0 0 0 0 0 0 0 0 0 0 0 0 0 0 0 0 0 0 0 0 0 0 0 0 0 0 0 0 0 0 0 0 0 0 0 0 0 0 0 0 0 0 0
0 0 0 0 0 0 0 0 0 0 0 0 0 0 0 0 0 0 0 0 0 0 0 0 0 0 0 0 0 0 0 0 0 0 0 0 0 0 0 0 0 0 0 0
0 0 0 0 0 0 0 0 0 0 0 0 0 0 0 0 0 0 0 0 0 0 0 0 0 0 0 0 0 0 0 0 0 0 0 0 0 0 0 0 0 0 0 0
0 0 0 0 0 0 0 0 0 0 0 0 0 0 0 0 0 0 0 0 0 0 0 0 0 0 0 0 0 0 0 0 0 0 0 0 0 0 0 0 0 0 0 0
0 0 0 0 0 0 0 0 0 0 0 0 0 0 0 0 0 0 0 0 0 0 0 0 0 0 0 0 0 0 0 0 0 0 0 0 0 0 0 0 0 0 0 0
0 0 0 0 0 0 0 0 0 0 0 0 0 0 0 0 0 0 0 0 0 0 0 0 0 0 0 0 0 0 0 0 0 0 0 0 0 0 0 0 0 0 0 0
0 0 0 0 0 0 0 0 0 0 0 0 0 0 0 0 0 0 0 0 0 0 0 0 0 0 0 0 0 0 0 0 0 0 0 0 0 0 0 0 0 0 0 0
Wind_Speed_500mb
31 33 34 35 34 30 26 18 7 18 36 20 17 21 12 11 14 17 21 12 25 28 17 19 30 32 27 10 9 8 17 7 17 42 42 41 32 35 33 24 26 19 28 35
25 30 33 32 32 32 33 17 13 26 50 15 21 19 18 27 15 16 13 14 17 14 21 12 22 26 4 8 4 5 6 5 9 17 25 10 7 10 14 18 9 25 28 13
20 27 29 27 24 30 39 16 10 15 36 31 20 30 26 26 15 23 27 16 18 22 24 21 14 12 6 7 7 7 5 7 22 27 36 37 29 28 23 13 11 25 27 39
22 23 15 24 23 29 36 14 9 14 14 22 27 20 8 22 21 21 13 14 34 26 17 23 32 30 16 6 2 5 6 18 27 33 35 34 33 35 49 47 45 41 47 48
25 27 24 14 22 24 30 9 8 7 4 25 36 30 25 29 19 13 18 24 15 13 12 15 5 7 8 18 9 6 4 18 19 28 32 36 40 47 48 45 47 49 49 52
27 25 24 17 20 27 14 20 13 6 10 14 16 26 33 21 24 13 17 11 10 13 17 7 3 7 12 15 9 13 8 9 11 30 28 30 23 40 44 45 49 48 45 26
34 31 32 27 31 29 19 17 11 7 7 17 22 9 20 18 23 15 12 13 15 4 6 7 13 18 28 36 40 37 24 23 15 19 16 31 24 18 19 31 35 26 8 9
25 26 26 26 33 35 30 24 15 11 7 20 20 18 18 16 18 14 17 18 10 8 2 3 7 6 6 15 30 27 37 27 14 13 23 35 45 33 30 26 32 2 11 17
40 42 38 37 34 34 37 34 33 10 3 14 16 20 32 17 17 12 16 8 17 16 11 6 9 11 2 6 4 1 14 27 20 10 16 22 16 6 6 3 19 13 15 10
47 38 42 42 41 46 47 36 41 21 10 14 29 19 21 21 22 5 9 12 12 19 11 11 11 12 6 10 8 9 7 9 27 27 25 21 14 7 7 13 15 20 18 12
47 60 64 59 58 55 54 63 51 52 22 22 34 34 21 22 30 10 16 11 7 12 12 9 11 10 15 8 16 10 14 11 13 13 21 26 6 12 13 5 10 21 22 43
58 51 63 57 64 50 58 55 42 63 37 18 37 51 44 41 30 29 35 11 13 21 12 11 8 8 7 15 12 19 13 19 12 14 13 12 20 23 27 33 41 57 58 54
61 60 50 55 58 57 53 58 55 42 48 48 57 57 58 51 54 47 30 22 28 19 26 14 10 16 11 15 21 31 30 53 26 30 34 47 58 63 66 67 64 67 60 50
57 58 58 57 59 60 59 63 65 66 23 12 21 25 45 54 57 71 73 58 33 44 32 24 12 13 24 20 22 21 29 20 27 31 42 52 60 69 70 68 66 66 56 50
56 56 60 62 61 62 60 68 70 73 66 5 9 33 36 35 41 47 60 68 54 26 16 12 13 26 18 20 18 21 49 41 26 30 53 46 54 65 54 48 59 57 54 50
57 57 57 58 63 56 56 51 72 83 72 22 10 24 31 38 42 42 45 57 62 46 18 13 24 53 19 9 18 46 67 70 65 56 71 71 72 71 62 58 59 54 52 45
56 59 57 57 56 58 61 11 13 36 76 18 7 8 20 32 26 33 43 47 38 34 25 18 31 35 23 12 30 50 65 67 63 59 58 60 66 49 48 49 47 47 42 38
55 56 56 57 56 55 64 74 68 24 65 24 7 6 5 25 16 19 26 22 27 22 20 20 18 20 28 16 29 61 72 69 61 63 54 60 57 52 52 41 41 37 35 35
53 53 52 53 61 58 64 60 62 61 44 9 13 14 12 27 17 17 17 19 11 17 12 17 16 12 15 25 50 56 58 52 57 45 39 33 34 36 38 35 36 33 32 31
45 44 35 22 46 57 29 25 35 51 40 27 8 37 14 31 27 22 19 14 8 9 13 11 10 25 63 68 53 54 54 48 40 31 29 30 29 29 32 29 30 30 30 32
46 27 24 15 26 46 24 19 20 16 11 20 26 41 14 25 11 11 23 9 8 8 9 12 9 13 28 50 59 63 54 44 36 31 32 30 28 25 27 27 28 30 32 34
35 21 27 32 24 17 13 11 11 10 11 14 12 22 39 20 14 8 15 10 11 11 11 8 7 14 33 35 38 39 37 34 31 28 28 26 24 24 25 27 29 33 37 38
44 15 17 13 17 16 17 16 9 11 12 20 22 12 27 15 17 8 9 16 13 16 11 9 13 14 22 30 31 27 24 24 23 22 21 21 22 23 26 29 32 39 43 41
24 17 15 12 10 12 10 15 14 13 22 43 36 17 9 12 13 8 9 5 8 10 10 14 16 19 28 28 25 24 22 20 18 17 17 19 22 26 30 35 39 44 45 44
15 15 12 12 3 4 9 14 12 18 27 45 18 10 12 7 9 8 8 11 10 13 14 17 6 18 26 27 24 21 19 17 14 15 18 23 28 33 35 36 40 43 45 44
18 5 3 5 6 5 7 12 7 24 32 29 9 8 8 10 7 13 12 12 14 10 5 2 12 22 25 24 22 19 15 12 13 17 21 24 29 34 37 35 36 37 38 37
9 5 6 6 5 7 4 15 12 29 23 8 7 15 14 9 8 10 10 11 7 7 6 12 18 25 24 21 16 12 10 10 14 18 21 23 26 28 31 32 29 29 28 29
Wind_Direction_500mb
229 231 235 240 236 234 227 204 226 212 172 175 203 222 218 229 212 207 245 277 261 258 262 271 255 252 254 106 137 219 197 251 256 269 286 281 274 268 266 255 250 227 251 251
230 241 241 243 245 231 213 187 192 181 172 215 218 228 228 232 198 211 198 235 233 245 247 253 247 252 336 8 284 341 34 236 286 288 285 53 30 350 321 298 275 248 261 270
237 244 243 241 230 211 188 175 173 176 210 237 241 221 233 219 214 236 233 242 256 249 247 242 254 247 104 59 93 105 110 238 242 264 275 303 297 306 272 241 266 291 278 286
210 213 237 213 200 183 180 202 199 176 201 222 223 228 240 223 214 215 220 248 238 235 241 249 254 257 260 208 107 171 247 256 265 269 278 290 291 283 272 270 270 267 279 282
198 207 214 215 198 185 200 221 180 187 203 209 213 218 229 226 197 196 215 236 172 175 238 236 339 13 232 255 233 234 198 261 286 274 273 269 268 266 268 274 275 273 273 271
202 201 223 214 192 194 203 213 188 182 168 189 201 215 227 235 240 201 245 269 236 244 255 280 315 260 275 263 246 253 240 252 258 264 280 298 277 255 261 261 266 269 275 302
218 209 215 224 213 215 207 207 171 196 225 200 213 209 232 201 213 222 186 194 211 131 104 341 307 281 269 260 253 239 247 243 252 275 293 256 264 287 297 282 284 287 269 139
206 201 207 208 217 217 224 222 187 192 241 214 209 210 199 191 198 214 208 205 197 160 74 274 278 238 265 251 241 240 235 249 259 250 246 276 292 290 290 260 280 244 213 177
229 219 217 214 209 210 218 226 218 196 195 230 218 205 203 198 202 196 219 187 206 177 192 181 225 239 40 260 270 48 239 232 231 196 248 263 309 64 44 26 270 174 171 169
242 234 224 227 229 215 224 226 218 200 216 248 191 199 198 193 192 197 140 172 162 186 192 207 226 246 188 235 216 211 189 222 225 236 248 259 274 96 137 249 295 156 168 269
242 241 242 239 242 245 225 225 225 211 212 235 208 206 178 173 190 183 148 134 192 183 211 212 215 239 208 249 241 238 219 236 221 238 257 267 84 130 223 285 139 174 257 298
241 238 232 244 224 231 238 237 238 225 218 236 220 235 229 226 230 216 177 200 155 181 202 204 211 201 213 225 241 218 238 237 264 228 243 209 186 250 260 268 276 285 291 293
243 239 235 248 230 223 225 234 243 230 224 246 247 235 237 233 229 223 220 228 218 207 199 188 215 233 194 224 227 256 264 255 252 254 251 260 271 272 273 274 277 285 287 284
243 241 239 239 241 236 227 227 235 221 238 238 233 232 236 246 243 235 231 235 238 235 217 215 219 224 213 236 245 245 248 281 254 256 258 266 263 265 268 270 273 276 282 278
247 243 244 244 242 239 234 234 232 233 212 290 253 241 240 252 247 242 236 230 231 209 205 208 218 236 242 229 254 246 246 251 254 257 260 261 270 277 282 284 283 276 272 265
248 249 246 246 241 243 240 236 231 232 224 229 208 247 251 240 226 218 233 229 226 222 215 218 235 242 223 226 239 243 251 259 255 259 260 263 271 278 283 285 280 269 261 252
248 245 247 244 241 235 227 214 201 221 216 223 213 210 230 228 207 212 223 228 225 222 233 229 235 232 224 239 246 252 259 262 264 259 264 269 268 276 283 274 268 256 252 253
250 243 241 242 239 237 236 244 249 231 197 202 209 179 207 193 174 188 198 199 212 225 229 237 235 247 231 249 246 254 257 264 270 270 265 262 269 269 271 262 254 250 252 256
247 246 240 238 229 226 229 237 238 228 204 213 181 191 215 178 181 182 173 196 212 205 220 232 224 226 228 237 245 252 260 264 268 265 271 269 265 266 263 255 254 258 260 261
239 232 224 212 217 221 215 210 201 200 206 213 216 195 194 169 177 185 168 187 221 209 225 231 225 240 246 252 259 263 265 263 259 266 272 270 264 258 257 258 259 258 262 264
225 218 217 194 168 181 192 212 202 174 198 195 202 197 165 193 169 174 202 181 193 223 211 201 225 243 243 247 245 251 253 257 259 258 260 263 259 248 249 258 264 266 269 274
225 215 191 169 178 195 212 192 180 212 201 164 177 186 192 172 167 184 172 192 188 224 137 217 234 239 233 226 226 236 244 250 255 257 253 251 249 252 256 260 266 271 275 281
238 242 198 200 170 204 188 184 179 195 152 169 159 159 172 151 179 197 175 203 205 123 189 225 245 221 208 222 228 236 244 247 246 243 242 246 254 261 267 272 277 280 283 286
192 205 204 220 177 196 182 214 211 196 179 171 171 138 162 164 179 178 207 122 137 198 218 233 253 232 223 213 219 225 223 221 228 237 249 260 269 274 279 283 283 283 285 286
230 195 216 208 123 90 159 180 163 189 176 150 140 131 158 160 193 187 117 169 211 213 229 238 195 210 205 203 202 202 209 214 228 249 267 280 286 290 292 291 290 290 291 292
221 258 135 68 172 170 184 191 173 177 163 158 135 141 178 198 189 181 198 182 209 221 182 109 179 175 180 179 180 187 204 226 258 277 287 294 297 300 301 303 300 296 295 295
173 123 125 135 353 353 84 157 180 174 173 186 155 188 188 120 192 198 191 211 241 82 163 167 175 170 169 170 180 200 231 268 292 301 306 309 311 312 312 313 311 305 303 299
Wind_Speed_850mb
31 33 34 35 34 30 26 18 7 18 36 20 17 21 12 11 14 17 21 12 25 28 17 19 30 32 27 10 9 8 17 7 17 42 42 41 32 35 33 24 26 19 28 35
25 30 33 32 32 32 33 17 13 26 50 15 21 19 18 27 15 16 13 14 17 14 21 12 22 26 4 8 4 5 6 5 9 17 25 10 7 10 14 18 9 25 28 13
20 27 29 27 24 30 39 16 10 15 36 31 20 30 26 26 15 23 27 16 18 22 24 21 14 12 6 7 7 7 5 7 22 27 36 37 29 28 23 13 11 25 27 39
22 23 15 24 23 29 36 14 9 14 14 22 27 20 8 22 21 21 13 14 34 26 17 23 32 30 16 6 2 5 6 18 27 33 35 34 33 35 49 47 45 41 47 48
25 27 24 14 22 24 30 9 8 7 4 25 36 30 25 29 19 13 18 24 15 13 12 15 5 7 8 18 9 6 4 18 19 28 32 36 40 47 48 45 47 49 49 52
27 25 24 17 20 27 14 20 13 6 10 14 16 26 33 21 24 13 17 11 10 13 17 7 3 7 12 15 9 13 8 9 11 30 28 30 23 40 44 45 49 48 45 26
34 31 32 27 31 29 19 17 11 7 7 17 22 9 20 18 23 15 12 13 15 4 6 7 13 18 28 36 40 37 24 23 15 19 16 31 24 18 19 31 35 26 8 9
25 26 26 26 33 35 30 24 15 11 7 20 20 18 18 16 18 14 17 18 10 8 2 3 7 6 6 15 30 27 37 27 14 13 23 35 45 33 30 26 32 2 11 17
40 42 38 37 34 34 37 34 33 10 3 14 16 20 32 17 17 12 16 8 17 16 11 6 9 11 2 6 4 1 14 27 20 10 16 22 16 6 6 3 19 13 15 10
47 38 42 42 41 46 47 36 41 21 10 14 29 19 21 21 22 5 9 12 12 19 11 11 11 12 6 10 8 9 7 9 27 27 25 21 14 7 7 13 15 20 18 12
47 60 64 59 58 55 54 63 51 52 22 22 34 34 21 22 30 10 16 11 7 12 12 9 11 10 15 8 16 10 14 11 13 13 21 26 6 12 13 5 10 21 22 43
58 51 63 57 64 50 58 55 42 63 37 18 37 51 44 41 30 29 35 11 13 21 12 11 8 8 7 15 12 19 13 19 12 14 13 12 20 23 27 33 41 57 58 54
61 60 50 55 58 57 53 58 55 42 48 48 57 57 58 51 54 47 30 22 28 19 26 14 10 16 11 15 21 31 30 53 26 30 34 47 58 63 66 67 64 67 60 50
57 58 58 57 59 60 59 63 65 66 23 12 21 25 45 54 57 71 73 58 33 44 32 24 12 13 24 20 22 21 29 20 27 31 42 52 60 69 70 68 66 66 56 50
56 56 60 62 61 62 60 68 70 73 66 5 9 33 36 35 41 47 60 68 54 26 16 12 13 26 18 20 18 21 49 41 26 30 53 46 54 65 54 48 59 57 54 50
57 57 57 58 63 56 56 51 72 83 72 22 10 24 31 38 42 42 45 57 62 46 18 13 24 53 19 9 18 46 67 70 65 56 71 71 72 71 62 58 59 54 52 45
56 59 57 57 56 58 61 11 13 36 76 18 7 8 20 32 26 33 43 47 38 34 25 18 31 35 23 12 30 50 65 67 63 59 58 60 66 49 48 49 47 47 42 38
55 56 56 57 56 55 64 74 68 24 65 24 7 6 5 25 16 19 26 22 27 22 20 20 18 20 28 16 29 61 72 69 61 63 54 60 57 52 52 41 41 37 35 35
53 53 52 53 61 58 64 60 62 61 44 9 13 14 12 27 17 17 17 19 11 17 12 17 16 12 15 25 50 56 58 52 57 45 39 33 34 36 38 35 36 33 32 31
45 44 35 22 46 57 29 25 35 51 40 27 8 37 14 31 27 22 19 14 8 9 13 11 10 25 63 68 53 54 54 48 40 31 29 30 29 29 32 29 30 30 30 32
46 27 24 15 26 46 24 19 20 16 11 20 26 41 14 25 11 11 23 9 8 8 9 12 9 13 28 50 59 63 54 44 36 31 32 30 28 25 27 27 28 30 32 34
35 21 27 32 24 17 13 11 11 10 11 14 12 22 39 20 14 8 15 10 11 11 11 8 7 14 33 35 38 39 37 34 31 28 28 26 24 24 25 27 29 33 37 38
44 15 17 13 17 16 17 16 9 11 12 20 22 12 27 15 17 8 9 16 13 16 11 9 13 14 22 30 31 27 24 24 23 22 21 21 22 23 26 29 32 39 43 41
24 17 15 12 10 12 10 15 14 13 22 43 36 17 9 12 13 8 9 5 8 10 10 14 16 19 28 28 25 24 22 20 18 17 17 19 22 26 30 35 39 44 45 44
15 15 12 12 3 4 9 14 12 18 27 45 18 10 12 7 9 8 8 11 10 13 14 17 6 18 26 27 24 21 19 17 14 15 18 23 28 33 35 36 40 43 45 44
18 5 3 5 6 5 7 12 7 24 32 29 9 8 8 10 7 13 12 12 14 10 5 2 12 22 25 24 22 19 15 12 13 17 21 24 29 34 37 35 36 37 38 37
9 5 6 6 5 7 4 15 12 29 23 8 7 15 14 9 8 10 10 11 7 7 6 12 18 25 24 21 16 12 10 10 14 18 21 23 26 28 31 32 29 29 28 29
Wind_Direction_850mb
229 231 235 240 236 234 227 204 226 212 172 175 203 222 218 229 212 207 245 277 261 258 262 271 255 252 254 106 137 219 197 251 256 269 286 281 274 268 266 255 250 227 251 251
230 241 241 243 245 231 213 187 192 181 172 215 218 228 228 232 198 211 198 235 233 245 247 253 247 252 336 8 284 341 34 236 286 288 285 53 30 350 321 298 275 248 261 270
237 244 243 241 230 211 188 175 173 176 210 237 241 221 233 219 214 236 233 242 256 249 247 242 254 247 104 59 93 105 110 238 242 264 275 303 297 306 272 241 266 291 278 286
210 213 237 213 200 183 180 202 199 176 201 222 223 228 240 223 214 215 220 248 238 235 241 249 254 257 260 208 107 171 247 256 265 269 278 290 291 283 272 270 270 267 279 282
198 207 214 215 198 185 200 221 180 187 203 209 213 218 229 226 197 196 215 236 172 175 238 236 339 13 232 255 233 234 198 261 286 274 273 269 268 266 268 274 275 273 273 271
202 201 223 214 192 194 203 213 188 182 168 189 201 215 227 235 240 201 245 269 236 244 255 280 315 260 275 263 246 253 240 252 258 264 280 298 277 255 261 261 266 269 275 302
218 209 215 224 213 215 207 207 171 196 225 200 213 209 232 201 213 222 186 194 211 131 104 341 307 281 269 260 253 239 247 243 252 275 293 256 264 287 297 282 284 287 269 139
206 201 207 208 217 217 224 222 187 192 241 214 209 210 199 191 198 214 208 205 197 160 74 274 278 238 265 251 241 240 235 249 259 250 246 276 292 290 290 260 280 244 213 177
229 219 217 214 209 210 218 226 218 196 195 230 218 205 203 198 202 196 219 187 206 177 192 181 225 239 40 260 270 48 239 232 231 196 248 263 309 64 44 26 270 174 171 169
242 234 224 227 229 215 224 226 218 200 216 248 191 199 198 193 192 197 140 172 162 186 192 207 226 246 188 235 216 211 189 222 225 236 248 259 274 96 137 249 295 156 168 269
242 241 242 239 242 245 225 225 225 211 212 235 208 206 178 173 190 183 148 134 192 183 211 212 215 239 208 249 241 238 219 236 221 238 257 267 84 130 223 285 139 174 257 298
241 238 232 244 224 231 238 237 238 225 218 236 220 235 229 226 230 216 177 200 155 181 202 204 211 201 213 225 241 218 238 237 264 228 243 209 186 250 260 268 276 285 291 293
243 239 235 248 230 223 225 234 243 230 224 246 247 235 237 233 229 223 220 228 218 207 199 188 215 233 194 224 227 256 264 255 252 254 251 260 271 272 273 274 277 285 287 284
243 241 239 239 241 236 227 227 235 221 238 238 233 232 236 246 243 235 231 235 238 235 217 215 219 224 213 236 245 245 248 281 254 256 258 266 263 265 268 270 273 276 282 278
247 243 244 244 242 239 234 234 232 233 212 290 253 241 240 252 247 242 236 230 231 209 205 208 218 236 242 229 254 246 246 251 254 257 260 261 270 277 282 284 283 276 272 265
248 249 246 246 241 243 240 236 231 232 224 229 208 247 251 240 226 218 233 229 226 222 215 218 235 242 223 226 239 243 251 259 255 259 260 263 271 278 283 285 280 269 261 252
248 245 247 244 241 235 227 214 201 221 216 223 213 210 230 228 207 212 223 228 225 222 233 229 235 232 224 239 246 252 259 262 264 259 264 269 268 276 283 274 268 256 252 253
250 243 241 242 239 237 236 244 249 231 197 202 209 179 207 193 174 188 198 199 212 225 229 237 235 247 231 249 246 254 257 264 270 270 265 262 269 269 271 262 254 250 252 256
247 246 240 238 229 226 229 237 238 228 204 213 181 191 215 178 181 182 173 196 212 205 220 232 224 226 228 237 245 252 260 264 268 265 271 269 265 266 263 255 254 258 260 261
239 232 224 212 217 221 215 210 201 200 206 213 216 195 194 169 177 185 168 187 221 209 225 231 225 240 246 252 259 263 265 263 259 266 272 270 264 258 257 258 259 258 262 264
225 218 217 194 168 181 192 212 202 174 198 195 202 197 165 193 169 174 202 181 193 223 211 201 225 243 243 247 245 251 253 257 259 258 260 263 259 248 249 258 264 266 269 274
225 215 191 169 178 195 212 192 180 212 201 164 177 186 192 172 167 184 172 192 188 224 137 217 234 239 233 226 226 236 244 250 255 257 253 251 249 252 256 260 266 271 275 281
238 242 198 200 170 204 188 184 179 195 152 169 159 159 172 151 179 197 175 203 205 123 189 225 245 221 208 222 228 236 244 247 246 243 242 246 254 261 267 272 277 280 283 286
192 205 204 220 177 196 182 214 211 196 179 171 171 138 162 164 179 178 207 122 137 198 218 233 253 232 223 213 219 225 223 221 228 237 249 260 269 274 279 283 283 283 285 286
230 195 216 208 123 90 159 180 163 189 176 150 140 131 158 160 193 187 117 169 211 213 229 238 195 210 205 203 202 202 209 214 228 249 267 280 286 290 292 291 290 290 291 292
221 258 135 68 172 170 184 191 173 177 163 158 135 141 178 198 189 181 198 182 209 221 182 109 179 175 180 179 180 187 204 226 258 277 287 294 297 300 301 303 300 296 295 295
173 123 125 135 353 353 84 157 180 174 173 186 155 188 188 120 192 198 191 211 241 82 163 167 175 170 169 170 180 200 231 268 292 301 306 309 311 312 312 313 311 305 303 299